Weather in Inya

Russia / Altai Krai     53°30′10″N   82°40′09″E
temp.,
°C
wind,
m/s
gust,
m/s
humid.,
%
clouds,
%
prec.,
mm/h
press.,
hPa
HPBL,
m
30 june, thu
thu3001:00+16wsw5109519 3.6 995324
04:00+10w512933 0.0 998558
07:00+10wsw611840 0.0 1001659
10:00+14wsw711550 0.0 10021270
13:00+18wsw8104732 0.0 10021953
16:00+20wsw710425 0.0 10022197
19:00+19wsw59500 0.0 10021823
22:00+13wsw33660 0.0 100324
1 july, fri
fri101:00+11wsw34670 0.0 100357
04:00+9wsw34820 0.0 100459
07:00+11wsw410770 0.0 1005390
10:00+16wsw796012 0.0 10051027
13:00+19wsw785156 0.0 10051622
16:00+19w795078 0.0 10051950
19:00+16w5957100 0.0 1006688
22:00+14sw4858100 0.0 1007334
2 july, sat
sat201:00+12wsw387494 0.0 1007170
04:00+11sw4118384 0.0 1007284
07:00+13wsw51078100 0.0 1008632
10:00+13wsw388466 0.0 1009403
13:00+16w577078 0.1 1009880
16:00+19w685878 0.4 10081333
19:00+19w565853 0.5 10091336
22:00+14wsw227969 0.3 100920
3 july, sun
sun301:00+13w227996 0.3 100929
04:00+11wsw229015 0.0 100917
07:00+13wsw238393 0.0 1009108
10:00+18w34605 0.0 1009791
13:00+20wsw445672 0.6 10081175
16:00+22wsw454643 0.0 10072105
19:00+21w2448100 0.0 10071506
22:00+15sw227413 0.0 100611
4 july, mon
mon401:00+13se11810 0.0 100610
04:00+11e1185100 0.0 100510
07:00+13ene228189 0.0 100454
10:00+18e2365100 0.0 1003409
13:00+20se345898 0.4 10021084
16:00+16ese238283 0.9 1000184
19:00+20ne225652 0.9 999916
22:00+15nnw22846 0.0 99911